TimeCDT,TemperatureF,Dew PointF,Humidity,Sea Level PressureIn,VisibilityMPH,Wind Direction,Wind SpeedMPH,Gust SpeedMPH,PrecipitationIn,Events,Conditions,WindDirDegrees,DateUTC
12:53 AM,78.1,72.0,81,29.93,10.0,South,5.8,-,N/A,,Clear,170,2013-06-25 05:53:00
1:53 AM,78.1,71.1,79,29.95,10.0,Calm,Calm,-,N/A,,Clear,0,2013-06-25 06:53:00
2:53 AM,77.0,71.1,82,29.94,10.0,Calm,Calm,-,N/A,,Clear,0,2013-06-25 07:53:00
3:53 AM,75.9,70.0,82,29.95,10.0,South,3.5,-,N/A,,Clear,180,2013-06-25 08:53:00
4:53 AM,75.9,69.1,79,29.94,10.0,South,4.6,-,N/A,,Clear,170,2013-06-25 09:53:00
5:53 AM,75.9,69.1,79,29.96,10.0,South,3.5,-,N/A,,Clear,180,2013-06-25 10:53:00
6:53 AM,77.0,70.0,79,29.95,10.0,South,5.8,-,N/A,,Clear,170,2013-06-25 11:53:00
7:53 AM,80.1,71.1,74,29.95,10.0,South,10.4,-,N/A,,Clear,190,2013-06-25 12:53:00
8:53 AM,82.9,71.1,67,29.95,10.0,South,8.1,16.1,N/A,,Clear,190,2013-06-25 13:53:00
9:53 AM,84.9,71.1,63,29.96,10.0,SSW,10.4,19.6,N/A,,Clear,210,2013-06-25 14:53:00
10:53 AM,87.1,72.0,61,29.96,10.0,Variable,5.8,17.3,N/A,,Clear,0,2013-06-25 15:53:00
11:53 AM,89.1,72.0,57,29.96,10.0,Variable,5.8,-,N/A,,Clear,0,2013-06-25 16:53:00
12:53 PM,90.0,71.1,54,29.94,10.0,SSW,10.4,-,N/A,,Scattered Clouds,210,2013-06-25 17:53:00
1:53 PM,93.0,72.0,50,29.92,10.0,SSW,8.1,-,N/A,,Scattered Clouds,210,2013-06-25 18:53:00
2:53 PM,91.9,71.1,50,29.90,10.0,South,5.8,-,N/A,,Scattered Clouds,190,2013-06-25 19:53:00
3:53 PM,91.9,71.1,50,29.87,10.0,SSW,5.8,-,N/A,,Scattered Clouds,200,2013-06-25 20:53:00
4:53 PM,91.9,70.0,48,29.83,10.0,South,10.4,19.6,N/A,,Partly Cloudy,190,2013-06-25 21:53:00
5:53 PM,89.1,71.1,55,29.78,10.0,South,10.4,18.4,N/A,,Clear,170,2013-06-25 22:53:00
6:53 PM,89.1,72.0,57,29.81,10.0,South,11.5,17.3,N/A,,Clear,190,2013-06-25 23:53:00
7:53 PM,86.0,72.0,63,29.82,10.0,South,3.5,-,N/A,,Clear,170,2013-06-26 00:53:00
8:53 PM,82.9,72.0,69,29.84,10.0,SSE,3.5,-,N/A,,Clear,160,2013-06-26 01:53:00
9:53 PM,81.0,73.0,77,29.86,10.0,SSE,3.5,-,N/A,,Clear,160,2013-06-26 02:53:00
10:53 PM,80.1,73.0,79,29.86,10.0,Calm,Calm,-,N/A,,Clear,0,2013-06-26 03:53:00
11:53 PM,79.0,72.0,79,29.86,10.0,Calm,Calm,-,N/A,,Clear,0,2013-06-26 04:53:00